This is the latest recevied weather packets stored in our database for station/object VK4HIT-13. If no packets are shown the sender has not sent any weather packets the latest 1 day(s).
| Time | Temp. | Humidity | Pressure | Rain* | Wind** | Luminosity | Snow |
|---|---|---|---|---|---|---|---|
| 1777997670 | 18.33° C | 92% | 1017.3 hPa | 0 mm | 0.89 m/s, 25° | - | - |
| 1777997370 | 18.33° C | 92% | 1017.3 hPa | 0 mm | 1.34 m/s, 24° | - | - |
| 1777997070 | 18.33° C | 92% | 1017.3 hPa | 0 mm | 1.79 m/s, 21° | - | - |
| 1777996770 | 18.33° C | 92% | 1017.4 hPa | 0 mm | 2.24 m/s, 14° | - | - |
| 1777996470 | 18.33° C | 92% | 1017.3 hPa | 0 mm | 2.68 m/s, 23° | - | - |
| 1777996170 | 18.33° C | 92% | 1017.3 hPa | 0 mm | 3.13 m/s, 23° | - | - |
| 1777995870 | 18.33° C | 92% | 1017.3 hPa | 0 mm | 3.13 m/s, 22° | - | - |
| 1777995570 | 18.33° C | 92% | 1017.5 hPa | 0 mm | 2.68 m/s, 24° | - | - |
| 1777995270 | 18.33° C | 92% | 1017.5 hPa | 0 mm | 3.13 m/s, 26° | - | - |
| 1777994970 | 18.33° C | 92% | 1017.5 hPa | 0 mm | 3.13 m/s, 23° | - | - |
| 1777994670 | 18.33° C | 92% | 1017.5 hPa | 0 mm | 2.68 m/s, 20° | - | - |
| 1777994370 | 18.33° C | 92% | 1017.7 hPa | 0 mm | 2.24 m/s, 28° | - | - |
| 1777994070 | 18.89° C | 91% | 1017.7 hPa | 0 mm | 3.13 m/s, 24° | - | - |
| 1777993770 | 18.89° C | 91% | 1017.9 hPa | 0 mm | 2.68 m/s, 26° | - | - |
| 1777993470 | 18.89° C | 90% | 1018 hPa | 0 mm | 2.68 m/s, 23° | - | - |
| 1777993170 | 18.89° C | 90% | 1017.9 hPa | 0 mm | 2.24 m/s, 25° | - | - |
| 1777992870 | 18.89° C | 90% | 1017.8 hPa | 0 mm | 2.68 m/s, 25° | - | - |
| 1777992570 | 18.89° C | 89% | 1017.9 hPa | 0 mm | 3.13 m/s, 23° | - | - |
| 1777992270 | 19.44° C | 89% | 1017.8 hPa | 0 mm | 3.58 m/s, 24° | - | - |
| 1777991970 | 19.44° C | 89% | 1017.9 hPa | 0 mm | 3.13 m/s, 27° | - | - |
| 1777991670 | 19.44° C | 88% | 1017.9 hPa | 0 mm | 3.58 m/s, 26° | - | - |
| 1777991370 | 19.44° C | 88% | 1018 hPa | 0 mm | 4.02 m/s, 25° | - | - |
| 1777991070 | 19.44° C | 88% | 1017.9 hPa | 0 mm | 3.58 m/s, 29° | - | - |
| 1777990770 | 20° C | 88% | 1018 hPa | 0 mm | 3.13 m/s, 26° | - | - |
| 1777990470 | 20° C | 88% | 1018.1 hPa | 0 mm | 2.68 m/s, 30° | - | - |
* Rain latest hour (hover to see other rain measurements)
** Current wind speed in m/s (hover to see current wind gust speed)